TimeCDT,TemperatureF,Dew PointF,Humidity,Sea Level PressureIn,VisibilityMPH,Wind Direction,Wind SpeedMPH,Gust SpeedMPH,PrecipitationIn,Events,Conditions,WindDirDegrees,DateUTC
12:15 AM,10.4,6.8,85,30.22,10.0,NE,8.1,-,N/A,,Mostly Cloudy,40,2013-03-17 05:15:00
12:35 AM,10.4,8.6,92,30.21,10.0,ENE,6.9,-,N/A,,Overcast,70,2013-03-17 05:35:00
12:55 AM,10.4,3.2,73,30.21,10.0,ENE,6.9,-,N/A,,Overcast,60,2013-03-17 05:55:00
1:15 AM,10.4,5.0,79,30.20,10.0,ENE,9.2,-,N/A,,Overcast,60,2013-03-17 06:15:00
1:35 AM,10.4,5.0,79,30.19,10.0,ENE,9.2,-,N/A,,Overcast,70,2013-03-17 06:35:00
1:55 AM,10.4,3.2,73,30.18,10.0,ENE,11.5,-,N/A,,Overcast,70,2013-03-17 06:55:00
2:15 AM,8.6,6.8,92,30.17,10.0,ENE,8.1,-,N/A,,Mostly Cloudy,70,2013-03-17 07:15:00
2:35 AM,8.6,3.2,79,30.17,10.0,East,8.1,-,N/A,,Partly Cloudy,80,2013-03-17 07:35:00
2:55 AM,8.6,3.2,79,30.17,10.0,ENE,8.1,-,N/A,,Clear,60,2013-03-17 07:55:00
3:15 AM,8.6,6.8,92,30.16,10.0,ENE,9.2,-,N/A,,Mostly Cloudy,70,2013-03-17 08:15:00
3:35 AM,8.6,3.2,79,30.16,10.0,East,8.1,-,N/A,,Overcast,80,2013-03-17 08:35:00
3:55 AM,8.6,3.2,79,30.15,10.0,ENE,11.5,-,N/A,,Overcast,70,2013-03-17 08:55:00
4:15 AM,8.6,6.8,92,30.14,10.0,ENE,10.4,-,N/A,,Overcast,70,2013-03-17 09:15:00
4:55 AM,8.6,3.2,79,30.12,10.0,East,10.4,-,N/A,,Overcast,80,2013-03-17 09:55:00
5:15 AM,8.6,3.2,79,30.11,10.0,ENE,12.7,-,N/A,,Overcast,70,2013-03-17 10:15:00
5:35 AM,8.6,3.2,79,30.10,10.0,East,10.4,-,N/A,,Overcast,80,2013-03-17 10:35:00
5:55 AM,8.6,3.2,79,30.10,10.0,ENE,10.4,-,N/A,,Overcast,70,2013-03-17 10:55:00
6:15 AM,8.6,3.2,79,30.11,10.0,East,11.5,-,N/A,,Overcast,90,2013-03-17 11:15:00
6:35 AM,8.6,3.2,79,30.09,10.0,East,12.7,-,N/A,,Overcast,100,2013-03-17 11:35:00
6:55 AM,8.6,3.2,79,30.09,10.0,East,12.7,-,N/A,,Overcast,90,2013-03-17 11:55:00
7:15 AM,10.4,5.0,79,30.09,10.0,East,9.2,-,N/A,,Overcast,100,2013-03-17 12:15:00
7:35 AM,10.4,3.2,73,30.07,10.0,ESE,12.7,-,N/A,,Overcast,110,2013-03-17 12:35:00
7:55 AM,10.4,5.0,79,30.07,10.0,East,11.5,-,N/A,,Overcast,100,2013-03-17 12:55:00
8:15 AM,10.4,6.8,85,30.07,10.0,ESE,10.4,-,N/A,,Overcast,110,2013-03-17 13:15:00
8:35 AM,10.4,6.8,85,30.06,10.0,ESE,13.8,-,N/A,,Overcast,110,2013-03-17 13:35:00
8:55 AM,12.2,6.8,79,30.05,10.0,ESE,15.0,-,N/A,,Overcast,120,2013-03-17 13:55:00
9:15 AM,12.2,8.6,85,30.05,10.0,ESE,16.1,-,N/A,,Mostly Cloudy,120,2013-03-17 14:15:00
9:35 AM,12.2,8.6,85,30.05,10.0,SE,16.1,-,N/A,,Overcast,130,2013-03-17 14:35:00
9:55 AM,14.0,8.6,79,30.04,10.0,SE,15.0,-,N/A,,Overcast,140,2013-03-17 14:55:00
10:15 AM,15.8,8.6,73,30.04,10.0,SE,13.8,17.3,N/A,,Overcast,140,2013-03-17 15:15:00
10:35 AM,15.8,8.6,73,30.03,10.0,SSE,15.0,-,N/A,,Overcast,150,2013-03-17 15:35:00
10:55 AM,15.8,10.4,79,30.01,10.0,SSE,16.1,23.0,N/A,,Overcast,150,2013-03-17 15:55:00
11:15 AM,17.6,10.4,73,30.01,10.0,SSE,16.1,21.9,N/A,,Overcast,160,2013-03-17 16:15:00
11:35 AM,17.6,10.4,73,29.99,10.0,SSE,20.7,26.5,N/A,,Overcast,160,2013-03-17 16:35:00
11:55 AM,19.4,14.0,80,29.98,10.0,South,20.7,27.6,N/A,,Overcast,180,2013-03-17 16:55:00
12:15 PM,21.2,12.2,68,29.96,10.0,South,18.4,29.9,N/A,,Overcast,170,2013-03-17 17:15:00
12:35 PM,21.2,12.2,68,29.95,10.0,South,18.4,26.5,N/A,,Overcast,170,2013-03-17 17:35:00
12:55 PM,21.2,14.0,74,29.94,10.0,South,18.4,23.0,N/A,,Overcast,170,2013-03-17 17:55:00
1:15 PM,23.0,15.8,74,29.92,10.0,South,24.2,27.6,N/A,,Overcast,170,2013-03-17 18:15:00
1:35 PM,24.8,17.6,74,29.92,10.0,South,18.4,26.5,N/A,,Overcast,180,2013-03-17 18:35:00
1:55 PM,24.8,17.6,74,29.91,10.0,South,21.9,28.8,N/A,,Overcast,190,2013-03-17 18:55:00
2:15 PM,26.6,17.6,69,29.89,10.0,South,18.4,23.0,N/A,,Overcast,180,2013-03-17 19:15:00
2:35 PM,26.6,17.6,69,29.87,10.0,South,16.1,21.9,N/A,,Overcast,180,2013-03-17 19:35:00
2:55 PM,26.6,17.6,69,29.84,10.0,South,16.1,25.3,N/A,,Overcast,170,2013-03-17 19:55:00
3:15 PM,26.6,19.4,74,29.83,10.0,South,18.4,25.3,N/A,,Overcast,180,2013-03-17 20:15:00
3:35 PM,28.4,19.4,69,29.82,10.0,South,19.6,29.9,N/A,,Overcast,180,2013-03-17 20:35:00
3:55 PM,28.4,19.4,69,29.80,10.0,South,15.0,26.5,N/A,,Overcast,170,2013-03-17 20:55:00
4:15 PM,28.4,21.2,74,29.79,10.0,South,21.9,27.6,N/A,,Mostly Cloudy,180,2013-03-17 21:15:00
4:35 PM,28.4,21.2,74,29.78,10.0,SSE,18.4,25.3,N/A,,Overcast,160,2013-03-17 21:35:00
4:55 PM,28.4,23.0,80,29.78,10.0,South,20.7,24.2,N/A,,Mostly Cloudy,170,2013-03-17 21:55:00
5:15 PM,28.4,23.0,80,29.78,10.0,South,15.0,26.5,N/A,,Overcast,180,2013-03-17 22:15:00
5:35 PM,28.4,23.0,80,29.78,10.0,South,17.3,25.3,N/A,,Mostly Cloudy,170,2013-03-17 22:35:00
5:55 PM,28.4,24.8,86,29.77,10.0,South,15.0,26.5,N/A,,Mostly Cloudy,170,2013-03-17 22:55:00
6:15 PM,28.4,24.8,86,29.75,10.0,South,18.4,24.2,N/A,,Overcast,170,2013-03-17 23:15:00
6:35 PM,28.4,23.0,80,29.75,10.0,South,17.3,28.8,N/A,,Overcast,170,2013-03-17 23:35:00
6:55 PM,28.4,24.8,86,29.73,10.0,SSE,19.6,28.8,N/A,,Overcast,160,2013-03-17 23:55:00
7:15 PM,28.4,24.8,86,29.72,5.0,SSE,20.7,29.9,N/A,,Overcast,160,2013-03-18 00:15:00
7:35 PM,28.4,24.8,86,29.70,1.8,SSE,25.3,32.2,N/A,,Overcast,160,2013-03-18 00:35:00
7:55 PM,28.4,24.8,86,29.68,1.2,SSE,23.0,32.2,N/A,,Overcast,160,2013-03-18 00:55:00
8:15 PM,28.4,26.6,93,29.66,0.2,SSE,28.8,32.2,N/A,,Overcast,160,2013-03-18 01:15:00
8:35 PM,28.4,26.6,93,29.66,0.5,SSE,23.0,33.4,N/A,,Overcast,160,2013-03-18 01:35:00
8:55 PM,28.4,26.6,93,29.65,1.8,SSE,24.2,34.5,N/A,,Overcast,160,2013-03-18 01:55:00
9:15 PM,30.2,28.4,93,29.66,5.0,South,23.0,33.4,N/A,,Overcast,170,2013-03-18 02:15:00
9:35 PM,30.2,28.4,93,29.66,5.0,South,21.9,29.9,N/A,,Overcast,170,2013-03-18 02:35:00
9:55 PM,30.2,28.4,93,29.65,5.0,South,23.0,35.7,N/A,,Overcast,170,2013-03-18 02:55:00
10:15 PM,30.2,28.4,93,29.64,4.0,South,26.5,34.5,N/A,,Overcast,180,2013-03-18 03:15:00
10:35 PM,30.2,28.4,93,29.63,5.0,South,26.5,33.4,N/A,,Overcast,180,2013-03-18 03:35:00
10:55 PM,30.2,28.4,93,29.62,5.0,South,26.5,35.7,N/A,,Overcast,180,2013-03-18 03:55:00
11:15 PM,30.2,28.4,93,29.62,8.0,South,23.0,36.8,N/A,,Overcast,190,2013-03-18 04:15:00
11:35 PM,30.2,28.4,93,29.62,8.0,South,24.2,34.5,N/A,,Overcast,190,2013-03-18 04:35:00
11:55 PM,32.0,28.4,87,29.62,5.0,South,20.7,28.8,N/A,,Overcast,190,2013-03-18 04:55:00